Location: Newark
(48.8656°N, 2.3211°E)
Time: 20:29:52
(UTC+00:00)

Envisat - Pass Details

Date: 12 December 2019
Orbit: 764 x 766 km, 98.1° (Epoch: 28 January)

Event Time Altitude Azimuth Distance (km) Brightness Sun altitude
Rises 06:43:30 0° 14° (NNE) 3,247 6.1 -8.1°
Reaches altitude 10° 06:45:50 10° 16° (NNE) 2,316 5.4 -7.7°
Maximum altitude 06:50:56 79° 103° (ESE) 785 3.2 -7.0°
Drops below altitude 10° 06:56:01 10° 191° (S) 2,297 5.7 -6.2°
Sets 06:58:19 0° 192° (SSW) 3,219 6.5 -5.9°
